When you browse on this site, cookies collect data to enhance your experience and personalize the content and advertising you see.
Visit our Privacy Policy to learn more. By continuing to use the site, you agree to this use of cookies and data.
  • In Hungary
  • List of Countries
  • For 7 days
  • Water Temperature
  • Weather Map
  • News
  • Weather Widgets
  • user-avatar
    Login

    Hourly Weather Zarzysko

    Today, 8 December, Sunday

    Time Temperature Precipitation Wind Pressure Humidity
    00:00 +5°C° 0 mm 6 mps 744 mmHg 81%
    01:00 +6°C° 0 mm 5 mps 745 mmHg 80%
    02:00 +5°C° 0 mm 5 mps 744 mmHg 81%
    03:00 +4°C° 0 mm 4 mps 744 mmHg 82%
    04:00 +4°C° 0 mm 4 mps 744 mmHg 83%
    05:00 +4°C° 0 mm 4 mps 744 mmHg 83%
    06:00 +4°C° 0 mm 4 mps 744 mmHg 84%
    07:00 +4°C° 0 mm 4 mps 744 mmHg 86%
    08:00 +3°C° 0 mm 5 mps 743 mmHg 82%
    09:00 +4°C° 0 mm 6 mps 743 mmHg 79%
    10:00 +5°C° 0 mm 6 mps 742 mmHg 75%
    11:00 +5°C° 0 mm 7 mps 742 mmHg 73%
    12:00 +6°C° 0 mm 7 mps 741 mmHg 70%
    13:00 +6°C° 0 mm 7 mps 740 mmHg 68%
    14:00 +6°C° 0 mm 7 mps 739 mmHg 70%
    15:00 +7°C° 0 mm 6 mps 739 mmHg 71%
    16:00 +5°C° 0 mm 6 mps 738 mmHg 73%
    17:00 +5°C° 0.1 mm 6 mps 738 mmHg 73%
    18:00 +5°C° 0.1 mm 6 mps 738 mmHg 74%
    19:00 +7°C° 0.1 mm 6 mps 738 mmHg 74%
    20:00 +7°C° 0.6 mm 6 mps 738 mmHg 74%
    21:00 +7°C° 0.6 mm 6 mps 738 mmHg 74%
    22:00 +7°C° 0.6 mm 6 mps 737 mmHg 74%
    23:00 +7°C° 0 mm 6 mps 737 mmHg 75%

    Tomorrow, 9 December, Monday

    Time Temperature Precipitation Wind Pressure Humidity
    00:00 +6°C° 0 mm 7 mps 737 mmHg 76%
    01:00 +6°C° 0 mm 7 mps 737 mmHg 77%
    02:00 +7°C° 0.1 mm 6 mps 737 mmHg 79%
    03:00 +7°C° 0.1 mm 5 mps 737 mmHg 81%
    04:00 +7°C° 0.1 mm 5 mps 736 mmHg 84%
    05:00 +7°C° 0.2 mm 4 mps 737 mmHg 85%
    06:00 +7°C° 0.2 mm 3 mps 737 mmHg 85%
    07:00 +7°C° 0.2 mm 3 mps 737 mmHg 86%
    08:00 +7°C° 0 mm 3 mps 737 mmHg 81%
    09:00 +6°C° 0 mm 4 mps 738 mmHg 76%
    10:00 +7°C° 0 mm 4 mps 738 mmHg 71%
    11:00 +7°C° 0 mm 5 mps 738 mmHg 68%
    12:00 +7°C° 0 mm 5 mps 738 mmHg 64%
    13:00 +8°C° 0 mm 5 mps 738 mmHg 61%
    14:00 +7°C° 0 mm 5 mps 738 mmHg 64%
    15:00 +6°C° 0 mm 4 mps 737 mmHg 67%
    16:00 +6°C° 0 mm 4 mps 737 mmHg 70%
    17:00 +5°C° 0 mm 4 mps 738 mmHg 73%
    18:00 +5°C° 0 mm 4 mps 738 mmHg 75%
    19:00 +4°C° 0 mm 4 mps 738 mmHg 78%
    20:00 +4°C° 0 mm 4 mps 738 mmHg 79%
    21:00 +4°C° 0 mm 4 mps 739 mmHg 81%
    22:00 +3°C° 0 mm 4 mps 739 mmHg 82%
    23:00 +3°C° 0 mm 4 mps 739 mmHg 83%

    Day after tomorrow, 10 December, Tuesday

    Time Temperature Precipitation Wind Pressure Humidity
    00:00 +4°C° 0 mm 4 mps 740 mmHg 83%
    01:00 +4°C° 0 mm 4 mps 740 mmHg 84%
    02:00 +3°C° 0.1 mm 4 mps 741 mmHg 81%
    03:00 +3°C° 0.1 mm 4 mps 742 mmHg 78%
    04:00 +2°C° 0.1 mm 5 mps 743 mmHg 74%
    05:00 +1°C° 0 mm 5 mps 743 mmHg 76%
    06:00 +1°C° 0 mm 6 mps 744 mmHg 77%
    07:00 -1°C° 0 mm 6 mps 745 mmHg 78%
    08:00 -1°C° 0 mm 7 mps 746 mmHg 76%
    09:00 0°C° 0 mm 7 mps 746 mmHg 74%
    10:00 0°C° 0 mm 8 mps 747 mmHg 72%
    11:00 0°C° 0 mm 8 mps 747 mmHg 74%
    12:00 0°C° 0 mm 8 mps 748 mmHg 75%
    13:00 -1°C° 0 mm 8 mps 748 mmHg 76%
    14:00 -1°C° 0 mm 7 mps 748 mmHg 74%
    15:00 -1°C° 0 mm 7 mps 749 mmHg 73%
    16:00 -1°C° 0 mm 7 mps 750 mmHg 71%
    17:00 -1°C° 0 mm 6 mps 750 mmHg 72%
    18:00 -2°C° 0 mm 6 mps 751 mmHg 73%
    19:00 -1°C° 0 mm 5 mps 751 mmHg 73%
    20:00 -2°C° 0 mm 5 mps 751 mmHg 74%
    21:00 -2°C° 0 mm 4 mps 752 mmHg 75%
    22:00 -2°C° 0 mm 3 mps 752 mmHg 75%
    23:00 -2°C° 0 mm 3 mps 752 mmHg 76%

    11 December, Wednesday

    Time Temperature Precipitation Wind Pressure Humidity
    00:00 -2°C° 0 mm 2 mps 752 mmHg 76%
    01:00 -2°C° 0 mm 2 mps 752 mmHg 76%
    02:00 -2°C° 0 mm 2 mps 751 mmHg 76%
    03:00 -1°C° 0 mm 1 mps 751 mmHg 75%
    04:00 -1°C° 0 mm 1 mps 750 mmHg 75%
    05:00 -3°C° 0 mm 2 mps 750 mmHg 73%
    06:00 -3°C° 0 mm 2 mps 750 mmHg 72%
    07:00 -4°C° 0 mm 3 mps 749 mmHg 71%
    08:00 -3°C° 0 mm 4 mps 749 mmHg 68%
    09:00 -2°C° 0 mm 4 mps 748 mmHg 66%
    10:00 -1°C° 0 mm 5 mps 748 mmHg 64%
    11:00 -1°C° 0 mm 5 mps 747 mmHg 61%
    12:00 0°C° 0 mm 5 mps 747 mmHg 59%
    13:00 +1°C° 0 mm 5 mps 746 mmHg 56%
    14:00 0°C° 0 mm 5 mps 745 mmHg 60%
    15:00 -1°C° 0 mm 4 mps 744 mmHg 64%
    16:00 -2°C° 0 mm 4 mps 744 mmHg 68%
    17:00 -2°C° 0 mm 4 mps 743 mmHg 67%
    18:00 -2°C° 0 mm 4 mps 743 mmHg 66%
    19:00 -3°C° 0 mm 4 mps 742 mmHg 64%
    20:00 -3°C° 0 mm 4 mps 742 mmHg 63%
    21:00 -3°C° 0 mm 4 mps 742 mmHg 61%
    22:00 -3°C° 0 mm 4 mps 741 mmHg 59%
    23:00 -2°C° 0 mm 4 mps 741 mmHg 61%

    12 December, Thursday

    Time Temperature Precipitation Wind Pressure Humidity
    00:00 -2°C° 0 mm 5 mps 741 mmHg 62%
    01:00 -2°C° 0 mm 5 mps 740 mmHg 64%
    02:00 -2°C° 0.2 mm 5 mps 740 mmHg 65%
    03:00 -2°C° 0.2 mm 5 mps 740 mmHg 67%
    04:00 -1°C° 0.2 mm 5 mps 739 mmHg 68%
    05:00 -1°C° 0 mm 5 mps 739 mmHg 70%
    06:00 -1°C° 0 mm 5 mps 740 mmHg 71%
    07:00 -1°C° 0 mm 5 mps 740 mmHg 72%
    08:00 -1°C° 0 mm 4 mps 740 mmHg 73%
    09:00 0°C° 0 mm 4 mps 741 mmHg 74%
    10:00 0°C° 0 mm 4 mps 741 mmHg 75%
    11:00 +1°C° 0 mm 4 mps 741 mmHg 74%
    12:00 +2°C° 0 mm 3 mps 741 mmHg 73%
    13:00 +3°C° 0 mm 3 mps 741 mmHg 72%
    14:00 +2°C° 0 mm 3 mps 741 mmHg 75%
    15:00 +1°C° 0 mm 3 mps 741 mmHg 78%
    16:00 +1°C° 0 mm 3 mps 741 mmHg 81%
    17:00 0°C° 0 mm 3 mps 741 mmHg 82%
    18:00 0°C° 0 mm 3 mps 741 mmHg 84%
    19:00 0°C° 0 mm 3 mps 741 mmHg 86%
    20:00 -1°C° 0 mm 3 mps 741 mmHg 87%
    21:00 -1°C° 0 mm 3 mps 741 mmHg 88%
    22:00 -1°C° 0 mm 2 mps 741 mmHg 89%
    23:00 -2°C° 0 mm 3 mps 740 mmHg 88%

    13 December, Friday

    Time Temperature Precipitation Wind Pressure Humidity
    00:00 -2°C° 0 mm 3 mps 739 mmHg 88%
    01:00 -3°C° 0 mm 4 mps 738 mmHg 87%
    02:00 -3°C° 0 mm 4 mps 737 mmHg 85%
    03:00 -4°C° 0 mm 5 mps 736 mmHg 83%
    04:00 -4°C° 0 mm 6 mps 734 mmHg 81%
    05:00 -3°C° 0 mm 6 mps 733 mmHg 75%
    06:00 -3°C° 0 mm 7 mps 732 mmHg 70%
    07:00 -4°C° 0 mm 8 mps 731 mmHg 65%
    08:00 -2°C° 0.1 mm 8 mps 730 mmHg 63%
    09:00 -1°C° 0.1 mm 8 mps 729 mmHg 61%
    10:00 0°C° 0.1 mm 8 mps 728 mmHg 60%
    11:00 0°C° 0.2 mm 7 mps 728 mmHg 64%
    12:00 0°C° 0.2 mm 7 mps 727 mmHg 68%
    13:00 +1°C° 0.2 mm 6 mps 727 mmHg 72%
    14:00 +1°C° 0.1 mm 6 mps 727 mmHg 75%
    15:00 0°C° 0.1 mm 5 mps 727 mmHg 77%
    16:00 0°C° 0.1 mm 5 mps 727 mmHg 80%
    17:00 0°C° 0 mm 4 mps 728 mmHg 81%
    18:00 -1°C° 0 mm 4 mps 728 mmHg 82%
    19:00 -1°C° 0 mm 4 mps 728 mmHg 83%
    20:00 -1°C° 0 mm 5 mps 728 mmHg 82%
    21:00 -1°C° 0 mm 5 mps 728 mmHg 81%
    22:00 0°C° 0 mm 5 mps 729 mmHg 80%
    23:00 0°C° 0 mm 5 mps 729 mmHg 79%
    Show more